Location: Unspecified
(0.0000°N, 0.0000°E)
Time: 06:35:11
(UTC+00:00)

Vanguard 3 - Pass Details

Date: 24 November 2019
Orbit: 508 x 3263 km, 33.3° (Epoch: 11 December)

Event Time Altitude Azimuth Distance (km) Brightness Sun altitude
Rises 08:08:12 0° 227° (SW) 3,985 10.5 32.9°
Reaches altitude 10° 08:10:28 10° 224° (SW) 3,289 10.2 33.4°
Maximum altitude 08:19:09 70° 141° (SE) 1,986 10.1 35.3°
Drops below altitude 10° 08:34:45 10° 60° (ENE) 5,609 11.9 38.8°
Sets 08:39:53 0° 58° (ENE) 6,910 12.2 40.0°
